Flag for United Kingdom Weather past 2 weeks in Peterborough, England, United Kingdom

Now
39 °F

Chilly.


Feels Like: 32 °F
Forecast: 37 / 51 °F
Wind: 13 mph from West

Location: Wittering

Current Time: Mar 27, 2015 at 2:22:09 AM

Latest Report: Mar 27, 2015 at 1:50 AM


Visibility: N/A

Pressure: 29.95 "Hg

Humidity: 75%

Dew point: 32 °F

Location of PeterboroughLocation

Historic Weather in Peterborough — Graph

°F

Peterborough temperature yesterday

Maximum temperature yesterday: 50 °F (at 11:50 AM)
Minimum temperature yesterday: 37 °F (at 12:50 AM)
Average temperature yesterday: 43 °F

Past Weeks' High & Low Weather Summary

 TemperatureHumidityPressure
High57 °F (Mar 12, 12:50 PM)100% (Mar 12, 4:50 AM)30.54 "Hg (Mar 12, 4:50 AM)
Low30 °F (Mar 18, 3:50 AM)35% (Mar 12, 3:50 PM)29.47 "Hg (Mar 26, 7:50 AM)
Average42 °F81%30.20 "Hg
* Reported Mar 12 12:50 AM — Mar 27 12:50 AM, Peterborough, Weather by CustomWeather, © 2015

Note: Actual official high and low records may vary slightly from our data, if they occured in-between our weather recording intervals... More about our weather records

Advertising

Peterborough weather history for previous 24 hours

 ConditionsComfort  
Time TempWeatherWind HumidityBarometerVisibility
12:50 AM
Fri, Mar 27
41 °FQuite cool.16 mph76%29.92 "HgN/A
11:50 PM
Thu, Mar 26
41 °FQuite cool.20 mph76%29.92 "HgN/A
10:50 PM41 °FQuite cool.21 mph76%29.89 "HgN/A
9:50 PM43 °FQuite cool.18 mph71%29.86 "HgN/A
8:50 PM43 °FQuite cool.24 mph71%29.80 "HgN/A
7:50 PM45 °FQuite cool.22 mph61%29.77 "HgN/A
6:50 PM46 °FCool.26 mph57%29.74 "HgN/A
5:50 PM46 °FPassing clouds.28 mph57%29.71 "HgN/A
4:50 PM50 °FPassing clouds.29 mph50%29.68 "HgN/A
3:50 PM48 °FCool.31 mph58%29.65 "HgN/A
2:50 PM50 °FCool.29 mph62%29.62 "HgN/A
1:50 PM50 °FPartly sunny.28 mph67%29.56 "HgN/A
12:50 PM48 °FBroken clouds.23 mph76%29.56 "HgN/A
11:50 AM50 °FBroken clouds.25 mph82%29.50 "HgN/A
10:50 AM46 °FPartly sunny.17 mph100%29.50 "HgN/A
9:50 AM45 °FBroken clouds.16 mph100%29.47 "HgN/A
8:50 AM41 °FFog.16 mph100%29.47 "Hg4 mi
7:50 AM39 °FRain. Partly sunny.17 mph100%29.47 "Hg4 mi
6:50 AM37 °FRain. Broken clouds.20 mph100%29.50 "Hg3 mi
5:50 AM37 °FRain. Partly sunny.17 mph100%29.50 "Hg4 mi
4:50 AM39 °FRain. Passing clouds.18 mph93%29.53 "Hg3 mi
3:50 AM39 °FRain. Passing clouds.13 mph87%29.59 "Hg5 mi
2:50 AM39 °FSprinkles. Passing clouds.10 mph81%29.62 "Hg4 mi
Weather by CustomWeather, © 2015

See weather overviewHow to use our weather pages